TimeMST,TemperatureF,Dew PointF,Humidity,Sea Level PressureIn,VisibilityMPH,Wind Direction,Wind SpeedMPH,Gust SpeedMPH,PrecipitationIn,Events,Conditions,WindDirDegrees,DateUTC
12:56 AM,30.9,6.1,35,29.94,10.0,East,5.8,-,N/A,,Clear,100,2013-02-11 07:56:00
1:56 AM,30.0,6.1,36,29.94,10.0,East,6.9,-,N/A,,Clear,100,2013-02-11 08:56:00
2:56 AM,27.0,6.1,41,29.92,10.0,East,6.9,-,N/A,,Clear,100,2013-02-11 09:56:00
3:56 AM,27.0,7.0,43,29.91,10.0,ESE,4.6,-,N/A,,Clear,110,2013-02-11 10:56:00
4:56 AM,24.1,7.0,48,29.92,10.0,Calm,Calm,-,N/A,,Clear,0,2013-02-11 11:56:00
5:56 AM,19.0,6.1,57,29.96,10.0,West,8.1,-,N/A,,Clear,260,2013-02-11 12:56:00
6:56 AM,21.9,8.1,55,29.98,10.0,East,3.5,-,N/A,,Clear,90,2013-02-11 13:56:00
7:56 AM,30.0,10.0,43,29.98,10.0,ESE,3.5,-,N/A,,Clear,120,2013-02-11 14:56:00
8:56 AM,39.9,10.0,29,29.98,10.0,ESE,3.5,-,N/A,,Clear,120,2013-02-11 15:56:00
9:56 AM,46.0,10.9,24,29.97,10.0,SW,5.8,-,N/A,,Clear,220,2013-02-11 16:56:00
10:56 AM,50.0,17.1,27,29.96,10.0,West,17.3,23.0,N/A,,Clear,260,2013-02-11 17:56:00
11:09 AM,50.0,17.6,28,30.01,10.0,WSW,23.0,27.6,N/A,,Partly Cloudy,250,2013-02-11 18:09:00
11:56 AM,51.1,17.1,26,29.95,10.0,WSW,19.6,27.6,N/A,,Scattered Clouds,250,2013-02-11 18:56:00
12:56 PM,53.1,16.0,23,29.93,10.0,WSW,16.1,29.9,N/A,,Partly Cloudy,250,2013-02-11 19:56:00
1:56 PM,54.0,16.0,22,29.89,10.0,WSW,19.6,27.6,N/A,,Mostly Cloudy,250,2013-02-11 20:56:00
2:56 PM,53.1,17.1,24,29.88,10.0,WSW,24.2,33.4,N/A,,Overcast,250,2013-02-11 21:56:00
3:56 PM,53.1,19.0,26,29.88,10.0,WSW,28.8,39.1,N/A,,Scattered Clouds,250,2013-02-11 22:56:00
4:56 PM,48.9,24.1,38,29.91,10.0,West,18.4,26.5,N/A,,Overcast,270,2013-02-11 23:56:00
5:56 PM,45.0,28.0,52,29.96,10.0,West,19.6,-,N/A,,Overcast,260,2013-02-12 00:56:00
6:43 PM,37.4,33.8,87,29.99,8.0,NW,18.4,25.3,0.00,Rain,Rain,320,2013-02-12 01:43:00
6:56 PM,35.1,33.1,92,30.02,8.0,NW,16.1,25.3,0.01,Rain,Light Rain,320,2013-02-12 01:56:00
7:02 PM,33.8,32.0,93,30.01,2.5,NW,12.7,-,0.00,Snow,Light Snow,310,2013-02-12 02:02:00
7:11 PM,33.8,32.0,93,30.01,1.2,NNW,12.7,-,0.00,Snow,Light Snow,330,2013-02-12 02:11:00
7:19 PM,33.8,32.0,93,30.01,1.2,NNW,11.5,-,0.00,Snow,Light Snow,330,2013-02-12 02:19:00
7:24 PM,33.8,32.0,93,30.01,2.0,NNW,10.4,-,0.00,Snow,Light Snow,330,2013-02-12 02:24:00
7:30 PM,33.8,32.0,93,30.02,5.0,NNW,11.5,-,0.00,Snow,Light Snow,330,2013-02-12 02:30:00
7:56 PM,34.0,32.0,92,30.04,3.0,NW,10.4,-,0.01,Snow,Light Snow,320,2013-02-12 02:56:00
8:25 PM,33.8,32.0,93,30.04,10.0,NW,15.0,-,0.01,,Overcast,320,2013-02-12 03:25:00
8:51 PM,33.8,32.0,93,30.06,6.0,NW,13.8,-,0.03,Snow,Light Snow,310,2013-02-12 03:51:00
8:56 PM,34.0,32.0,92,30.04,5.0,NW,16.1,-,0.03,Snow,Light Snow,320,2013-02-12 03:56:00
9:00 PM,33.8,32.0,93,30.06,2.5,NW,11.5,-,0.00,Snow,Light Snow,320,2013-02-12 04:00:00
9:10 PM,33.8,32.0,93,30.06,1.8,NNW,12.7,-,0.00,Snow,Light Snow,340,2013-02-12 04:10:00
9:19 PM,33.8,32.0,93,30.06,2.5,NNW,12.7,-,0.00,Snow,Light Snow,340,2013-02-12 04:19:00
9:31 PM,33.8,32.0,93,30.07,1.5,NNW,11.5,-,0.00,Snow,Light Snow,330,2013-02-12 04:31:00
9:41 PM,32.0,32.0,100,30.08,1.2,NNW,16.1,-,0.00,Snow,Light Snow,330,2013-02-12 04:41:00
9:56 PM,32.0,32.0,100,30.06,1.2,NNW,10.4,-,0.00,Snow,Light Snow,330,2013-02-12 04:56:00
10:01 PM,32.0,32.0,100,30.08,1.5,NNW,10.4,-,0.00,Snow,Light Snow,340,2013-02-12 05:01:00
10:05 PM,32.0,32.0,100,30.08,1.8,NNW,10.4,-,0.00,Snow,Light Snow,340,2013-02-12 05:05:00
10:11 PM,32.0,32.0,100,30.08,2.0,NNW,10.4,-,0.00,Snow,Light Snow,340,2013-02-12 05:11:00
10:29 PM,32.0,32.0,100,30.08,4.0,NNW,10.4,-,0.00,Snow,Light Snow,340,2013-02-12 05:29:00
10:36 PM,32.0,32.0,100,30.09,7.0,NNW,9.2,-,0.00,Snow,Light Snow,340,2013-02-12 05:36:00
10:56 PM,32.0,30.9,96,30.05,9.0,NNW,16.1,23.0,0.00,,Overcast,330,2013-02-12 05:56:00
11:56 PM,30.9,30.0,96,30.06,10.0,NNW,9.2,-,N/A,,Scattered Clouds,330,2013-02-12 06:56:00